Wind_Speed
38 34 32 32 31 30 28 26 25 23 23 20 18 16 14 12 9 9 9 8 8 8 8 8 9 9 9 10 11 12 13 14 16 17 19 20 21 22 23 23 23 24 25 26
41 38 36 34 33 31 30 28 26 24 23 21 18 16 15 14 11 11 10 10 10 10 10 10 11 11 12 12 13 14 15 16 17 18 20 21 22 22 23 25 25 26 27 28
43 40 39 38 35 33 31 30 28 26 23 21 20 18 17 15 13 12 12 11 11 12 12 13 13 13 14 15 16 16 17 17 19 20 21 23 23 24 25 26 27 28 29 30
44 42 42 38 36 34 33 31 29 27 25 22 20 19 18 17 15 13 13 13 14 14 14 15 16 16 17 17 18 18 19 20 21 22 22 23 24 25 27 28 29 29 30 30
43 43 43 39 36 34 33 31 27 25 24 22 21 20 19 18 16 15 15 15 15 16 16 17 18 18 19 20 21 21 20 22 22 23 24 25 25 25 27 28 29 30 31 31
39 39 39 37 34 33 30 28 27 26 24 25 24 22 19 18 17 16 16 16 17 17 18 18 19 19 21 22 23 23 23 24 25 25 27 27 27 28 28 30 31 32 32 32
38 38 37 33 31 30 30 27 26 24 24 24 25 23 20 17 16 16 16 17 17 19 20 21 21 21 22 23 24 25 27 28 29 29 29 30 30 30 31 32 32 32 32 32
36 36 34 30 29 29 28 27 25 25 24 24 24 22 20 18 16 16 16 17 18 19 21 21 22 23 24 25 25 27 28 29 30 31 33 33 32 32 32 33 34 33 33 34
28 29 29 28 29 28 27 27 25 24 23 22 20 18 18 18 18 18 18 19 20 20 21 22 23 24 24 25 27 27 28 29 31 32 33 32 33 34 34 35 34 34 35 35
22 22 22 22 23 24 24 25 24 23 21 20 19 18 17 18 19 20 20 20 21 21 22 23 24 25 26 27 28 29 30 31 32 33 33 34 34 34 35 35 36 36 36 37
15 18 19 19 19 20 21 21 20 22 21 18 16 18 18 18 19 20 21 21 21 22 23 23 24 25 27 28 29 30 31 32 33 33 33 34 35 35 36 36 37 37 37 37
9 12 13 13 14 14 15 16 17 16 15 14 16 17 17 18 19 20 21 22 22 23 24 25 26 27 28 29 29 30 30 31 32 33 33 34 34 36 36 37 38 39 41 41
8 10 11 11 12 11 12 12 12 13 12 12 14 16 17 17 18 19 20 21 22 23 25 26 27 28 28 29 29 30 31 32 33 34 34 35 36 36 38 38 39 40 41 41
6 7 8 9 10 10 10 10 11 11 12 13 14 16 16 17 18 19 20 22 23 24 25 26 27 28 29 30 30 31 31 32 33 33 34 35 35 36 37 38 39 40 40 42
6 7 7 8 7 7 8 9 10 11 13 14 15 16 17 18 19 20 22 23 24 25 26 27 28 29 30 31 31 31 32 33 34 35 36 37 37 38 39 40 41 41 42 43
6 6 6 7 7 8 9 10 11 13 14 15 16 17 18 19 20 21 23 24 25 26 27 28 29 30 30 31 32 32 33 34 36 37 37 38 39 40 41 42 43 44 45 45
7 7 7 7 8 8 9 10 12 13 14 16 17 18 19 20 21 22 23 24 26 27 28 29 30 30 31 33 34 35 36 37 38 39 40 40 41 42 43 44 44 45 46 46
8 8 9 9 10 11 11 13 14 15 16 17 18 19 21 22 23 24 25 26 27 28 29 30 31 32 33 34 35 36 38 39 40 41 42 43 43 44 44 45 45 46 46 46
10 11 11 12 12 13 14 15 16 17 18 19 20 21 23 24 25 26 27 28 29 30 31 32 33 35 36 37 39 39 40 41 42 42 42 43 43 44 45 45 45 45 45 44
11 12 13 14 14 15 16 17 18 19 20 21 22 23 25 26 27 28 29 30 31 32 33 34 36 37 38 39 39 40 41 41 42 42 42 43 43 43 42 42 42 41 41 40
13 13 14 15 17 18 19 20 20 21 22 23 24 25 26 27 28 29 30 31 33 34 35 36 37 37 38 39 39 39 40 40 40 40 40 40 39 39 39 38 37 36 36 36
14 16 17 18 19 20 21 22 23 24 25 25 26 27 28 29 30 31 32 33 34 35 35 36 36 37 37 38 38 38 38 38 38 37 36 36 36 36 35 34 33 32 32 32
16 17 18 19 20 21 22 23 24 25 26 27 28 29 30 31 31 32 33 34 34 35 35 35 36 36 37 37 37 36 35 35 35 34 33 33 33 32 32 31 30 29 29 29
17 19 20 21 22 23 24 25 26 27 28 29 30 30 31 32 32 33 33 34 34 35 35 35 35 35 34 34 33 33 33 32 32 31 31 31 30 29 29 28 27 27 27 27
20 22 22 23 24 25 26 27 27 28 29 30 30 31 32 32 32 32 33 33 33 33 33 33 32 32 32 31 31 31 30 30 29 29 28 28 27 26 25 25 24 25 25 24
22 22 24 25 26 27 28 28 28 29 30 31 31 32 32 32 32 32 32 32 32 32 32 31 31 30 29 29 29 28 27 27 27 26 25 24 24 24 23 22 22 21 21 21
24 25 26 26 27 27 28 28 28 29 31 31 32 32 32 32 31 31 31 30 30 29 29 28 28 27 26 26 26 25 25 25 24 24 24 23 23 22 21 20 20 20 19 19
Wind_Direction
244 244 242 243 248 252 256 263 265 266 269 272 274 274 275 278 281 287 279 270 262 266 266 267 261 257 252 252 251 251 251 249 250 251 251 250 250 251 252 253 255 257 258 260
244 244 245 246 249 252 256 261 263 264 264 267 267 268 268 273 277 278 277 275 268 266 267 270 265 262 261 259 257 256 257 257 257 257 257 255 254 255 256 257 258 260 261 262
243 243 245 245 246 251 254 259 260 258 259 263 263 266 272 275 273 268 270 273 267 263 260 262 264 264 264 265 265 264 263 263 262 260 260 258 257 258 260 260 261 261 263 264
243 243 244 244 244 247 251 254 255 257 261 260 260 263 269 271 270 264 268 269 266 264 268 266 267 267 266 267 264 267 268 267 266 263 265 264 262 263 265 264 263 264 263 263
241 242 243 245 244 245 248 249 253 258 260 261 261 265 268 265 263 265 270 269 268 269 270 271 271 272 272 271 268 269 272 271 270 269 270 270 269 270 268 267 267 267 266 267
239 241 244 243 243 244 246 247 251 257 257 257 261 259 262 264 264 265 266 269 272 275 277 276 275 275 274 274 275 274 273 272 271 273 272 271 271 271 271 270 270 269 269 269
237 240 243 241 242 241 243 249 253 256 258 256 259 257 256 258 261 262 267 270 273 274 275 276 276 276 274 274 275 276 277 275 274 273 273 272 272 271 271 270 271 271 271 270
236 238 240 240 242 243 246 248 252 254 255 256 258 254 254 256 259 262 267 272 274 274 273 275 275 275 276 276 276 277 278 277 277 278 278 275 274 273 272 272 272 272 272 273
235 237 239 240 242 240 243 249 252 255 258 259 256 251 248 253 260 263 268 272 274 274 274 274 276 276 278 279 278 277 278 279 278 281 283 279 278 277 277 276 275 274 273 274
235 235 237 235 233 236 240 244 245 247 252 254 253 248 251 256 260 264 269 270 272 273 274 275 277 279 281 281 281 281 281 281 281 280 281 281 281 281 282 278 276 276 276 275
232 236 245 241 236 236 236 241 243 246 248 244 246 251 255 258 260 264 268 270 272 273 275 277 278 280 282 282 282 282 282 281 280 281 281 282 280 280 281 279 276 276 276 277
232 233 234 239 239 233 231 233 237 238 235 244 251 254 256 257 260 264 267 270 273 274 276 279 281 283 284 283 283 282 282 282 281 280 280 281 281 281 280 280 280 279 279 280
236 236 236 238 228 229 230 231 235 240 250 259 260 264 263 261 264 266 269 273 275 277 279 281 283 284 285 285 285 285 284 282 282 282 281 281 282 281 282 281 281 281 281 280
226 230 231 232 232 231 239 242 249 256 263 266 267 266 267 269 271 273 274 276 278 279 280 283 284 284 285 286 286 287 286 285 285 284 284 284 284 283 283 282 281 282 282 282
219 227 230 232 228 234 243 251 256 260 264 266 267 269 272 274 275 276 278 279 280 281 282 283 284 284 285 286 287 287 286 286 287 286 286 286 285 285 285 284 284 284 285 285
225 231 232 234 243 245 247 251 255 259 264 269 272 273 275 276 277 278 280 282 283 284 284 284 284 285 286 287 287 287 288 289 289 288 288 287 287 287 286 286 285 285 285 285
246 254 253 251 252 254 258 262 265 268 272 275 277 277 279 280 282 283 284 285 287 287 287 287 288 288 289 289 289 289 289 289 290 289 289 289 288 288 287 287 286 286 286 286
249 254 260 266 269 272 274 275 276 278 280 281 282 282 283 284 285 286 287 288 288 288 289 289 290 291 291 291 291 291 291 291 291 290 290 289 289 288 288 287 287 287 287 286
250 257 263 267 271 275 278 279 280 280 282 283 283 285 286 286 287 287 288 289 289 289 289 290 290 291 292 293 294 293 293 292 291 291 290 290 289 288 288 287 287 286 286 287
256 261 265 269 273 275 278 280 282 282 284 285 286 287 288 288 288 289 289 290 290 291 292 293 294 294 294 295 295 294 293 293 292 292 291 291 291 290 289 289 288 287 287 287
263 267 270 273 277 279 281 283 285 286 287 288 289 290 290 291 291 292 292 293 294 294 295 295 295 295 296 296 296 295 295 294 294 294 293 292 292 292 292 291 290 289 288 288
269 272 274 277 279 281 283 285 286 287 289 290 291 292 293 294 294 294 295 296 296 296 296 297 297 297 297 298 298 298 298 297 297 296 295 295 294 294 293 293 292 291 291 291
270 274 278 280 282 284 285 286 288 289 291 292 293 294 295 296 296 297 297 297 297 297 297 298 299 300 300 300 300 300 300 299 299 298 297 297 297 297 296 296 295 294 294 294
276 279 281 282 284 285 286 288 289 290 291 292 294 295 296 297 297 298 299 299 298 298 299 299 300 300 301 301 302 302 301 301 301 301 300 299 299 298 298 297 297 296 297 298
282 282 283 285 287 288 288 289 289 290 292 293 294 295 296 297 298 299 299 299 299 299 300 300 300 300 301 302 303 303 303 303 303 303 302 302 301 300 300 300 299 299 300 300
284 286 287 289 290 291 290 290 291 293 294 294 294 295 296 297 298 299 299 300 300 300 300 301 300 300 301 302 303 303 304 305 306 306 306 304 303 303 302 302 302 303 304 304
286 287 289 290 290 290 290 290 291 292 293 294 295 296 296 297 298 299 299 300 301 302 301 301 301 301 302 304 305 305 306 307 307 307 308 307 306 305 303 303 304 306 307 307
Height
5807 5811 5814 5817 5818 5820 5821 5822 5822 5824 5824 5825 5826 5827 5827 5827 5827 5827 5828 5829 5829 5829 5830 5831 5831 5831 5831 5831 5831 5832 5832 5833 5833 5833 5834 5835 5835 5836 5836 5836 5836 5836 5837 5837
5800 5804 5806 5809 5811 5813 5815 5816 5817 5818 5819 5820 5820 5821 5822 5822 5822 5823 5824 5824 5825 5825 5826 5827 5827 5827 5827 5827 5827 5828 5828 5828 5828 5828 5828 5829 5829 5829 5829 5829 5829 5829 5829 5829
5791 5795 5797 5801 5804 5806 5808 5809 5811 5812 5814 5814 5815 5816 5817 5818 5817 5818 5819 5820 5821 5821 5821 5822 5822 5822 5822 5822 5822 5822 5823 5822 5822 5822 5822 5822 5822 5822 5821 5821 5821 5821 5821 5820
5782 5787 5789 5795 5797 5799 5801 5802 5804 5806 5808 5808 5809 5810 5811 5812 5812 5812 5814 5815 5816 5816 5816 5816 5816 5816 5816 5816 5816 5816 5816 5816 5816 5815 5815 5815 5814 5814 5814 5812 5812 5812 5811 5811
5773 5776 5779 5785 5789 5791 5794 5796 5797 5799 5801 5802 5803 5804 5804 5805 5807 5808 5809 5810 5811 5811 5811 5811 5810 5810 5810 5810 5810 5810 5810 5810 5809 5808 5808 5807 5807 5806 5805 5804 5803 5803 5802 5801
5764 5767 5770 5778 5781 5784 5787 5788 5791 5793 5795 5796 5797 5799 5800 5800 5801 5802 5803 5803 5804 5804 5804 5804 5804 5804 5804 5803 5803 5803 5803 5803 5802 5802 5801 5800 5799 5797 5796 5795 5795 5794 5792 5791
5755 5759 5763 5769 5772 5776 5780 5784 5785 5786 5788 5790 5790 5792 5793 5794 5794 5796 5797 5797 5797 5798 5798 5798 5798 5798 5797 5797 5796 5796 5795 5794 5793 5793 5792 5791 5789 5788 5787 5786 5785 5784 5783 5782
5749 5752 5759 5762 5765 5770 5773 5776 5777 5779 5780 5782 5783 5783 5786 5788 5789 5790 5790 5791 5791 5791 5791 5791 5791 5791 5790 5789 5788 5787 5786 5785 5783 5783 5782 5780 5778 5778 5776 5776 5775 5774 5773 5772
5744 5748 5752 5755 5758 5762 5765 5768 5771 5772 5773 5775 5776 5777 5779 5782 5783 5784 5784 5784 5785 5785 5784 5784 5783 5783 5782 5781 5780 5779 5778 5776 5775 5774 5772 5770 5769 5768 5766 5766 5765 5763 5762 5761
5738 5742 5744 5747 5750 5754 5758 5761 5763 5766 5768 5769 5771 5772 5773 5775 5776 5777 5778 5778 5778 5778 5777 5777 5776 5775 5774 5773 5772 5770 5769 5768 5766 5765 5763 5762 5760 5758 5757 5755 5753 5752 5751 5749
5733 5737 5740 5742 5745 5749 5751 5754 5756 5758 5761 5763 5765 5766 5767 5768 5770 5770 5771 5771 5771 5770 5770 5769 5768 5767 5766 5764 5763 5761 5760 5758 5757 5755 5754 5752 5750 5749 5747 5745 5743 5741 5739 5738
5732 5734 5737 5739 5741 5744 5746 5748 5751 5753 5755 5756 5759 5760 5761 5763 5763 5764 5764 5764 5763 5763 5762 5761 5760 5758 5757 5755 5754 5752 5750 5748 5747 5745 5744 5742 5740 5738 5736 5734 5732 5730 5728 5726
5729 5731 5734 5736 5738 5740 5742 5744 5747 5749 5750 5752 5754 5755 5756 5756 5756 5757 5757 5756 5756 5755 5754 5753 5751 5750 5748 5747 5745 5743 5741 5739 5737 5735 5733 5731 5729 5727 5725 5723 5720 5718 5716 5713
5726 5728 5729 5732 5735 5737 5739 5741 5743 5744 5746 5747 5748 5749 5749 5749 5750 5750 5750 5749 5748 5747 5746 5745 5743 5742 5740 5738 5736 5734 5732 5730 5728 5726 5723 5721 5718 5716 5714 5711 5708 5705 5703 5700
5724 5726 5728 5730 5731 5733 5735 5737 5739 5740 5741 5742 5742 5743 5743 5743 5743 5743 5742 5741 5740 5739 5738 5737 5735 5733 5731 5729 5727 5725 5722 5720 5718 5715 5712 5710 5707 5704 5701 5699 5696 5693 5690 5687
5722 5724 5726 5727 5729 5730 5732 5734 5735 5736 5736 5737 5737 5737 5737 5737 5736 5736 5735 5734 5732 5731 5729 5727 5725 5723 5721 5719 5717 5715 5712 5710 5707 5704 5701 5698 5695 5692 5689 5685 5682 5679 5676 5672
5720 5721 5723 5724 5726 5727 5728 5729 5730 5731 5731 5731 5731 5731 5730 5730 5729 5728 5727 5725 5724 5722 5720 5718 5716 5714 5711 5709 5707 5704 5701 5698 5695 5692 5689 5685 5682 5679 5675 5672 5668 5665 5661 5657
5717 5718 5719 5720 5721 5722 5723 5724 5725 5725 5725 5725 5724 5724 5723 5722 5721 5720 5718 5717 5715 5713 5711 5708 5706 5704 5701 5698 5695 5692 5689 5686 5683 5679 5675 5672 5668 5664 5660 5657 5653 5649 5646 5642
5713 5714 5715 5716 5717 5718 5719 5719 5719 5719 5719 5718 5717 5717 5716 5714 5713 5711 5710 5707 5705 5703 5701 5698 5696 5693 5690 5686 5683 5680 5676 5673 5669 5665 5661 5657 5653 5649 5645 5641 5638 5634 5630 5627
5709 5710 5711 5712 5712 5713 5713 5713 5713 5712 5712 5711 5710 5709 5707 5706 5704 5702 5700 5698 5695 5692 5690 5687 5684 5681 5677 5674 5670 5667 5663 5659 5655 5651 5647 5643 5639 5635 5631 5627 5623 5620 5616 5613
5704 5705 5706 5706 5707 5707 5707 5706 5706 5705 5704 5703 5702 5700 5699 5697 5694 5692 5689 5687 5684 5681 5678 5675 5671 5668 5665 5661 5657 5653 5649 5645 5642 5638 5633 5629 5625 5621 5617 5614 5610 5607 5604 5600
5699 5700 5700 5700 5700 5700 5699 5699 5698 5697 5696 5694 5693 5691 5689 5687 5684 5682 5679 5676 5673 5670 5666 5663 5659 5656 5652 5648 5644 5640 5636 5632 5629 5625 5621 5617 5613 5609 5606 5602 5599 5595 5592 5589
5694 5694 5694 5694 5693 5693 5692 5691 5690 5688 5687 5685 5684 5682 5679 5677 5674 5671 5668 5665 5662 5658 5655 5651 5648 5644 5640 5636 5633 5629 5625 5621 5617 5613 5610 5606 5602 5598 5595 5592 5588 5585 5582 5579
5688 5688 5687 5687 5686 5685 5684 5683 5681 5680 5678 5676 5674 5672 5669 5667 5664 5661 5657 5654 5651 5647 5644 5640 5637 5633 5630 5626 5622 5618 5614 5611 5607 5603 5600 5596 5592 5589 5585 5582 5579 5576 5573 5570
5681 5680 5680 5679 5678 5677 5676 5674 5673 5671 5669 5667 5664 5662 5659 5656 5653 5650 5647 5644 5640 5637 5633 5630 5626 5623 5620 5616 5613 5609 5605 5601 5598 5594 5590 5587 5583 5580 5577 5574 5571 5568 5565 5562
5674 5673 5672 5671 5670 5668 5667 5665 5663 5661 5659 5657 5654 5652 5649 5646 5643 5640 5637 5634 5630 5627 5624 5620 5617 5613 5610 5607 5604 5600 5597 5593 5590 5586 5582 5579 5576 5573 5570 5567 5564 5561 5558 5555
5666 5665 5664 5662 5661 5659 5657 5656 5654 5652 5649 5647 5644 5642 5639 5636 5633 5630 5627 5624 5621 5618 5614 5611 5608 5605 5602 5599 5596 5592 5589 5586 5582 5579 5575 5572 5569 5566 5563 5560 5558 5555 5552 5550